Probability
6 6 29 19 16 19 16 16 19 16 16 16 16 13 10 10 13 10 13 16 13 13 13 10 6 10 10 13 13 10 6 3 0 3 3 3 3 3 0 6 3 0 0
3 6 29 23 16 16 19 16 16 13 13 13 13 13 10 10 10 6 6 3 3 10 10 6 6 10 10 10 10 10 6 0 0 0 6 0 3 3 3 3 0 0 0
3 3 26 23 19 16 16 13 13 13 13 13 13 13 10 6 10 0 0 3 3 3 10 6 6 0 0 3 6 3 3 0 0 0 3 0 0 3 0 6 6 0 0
3 3 16 29 26 19 16 10 10 10 13 13 13 13 13 6 6 3 0 3 6 6 3 3 3 0 0 0 3 3 0 0 0 0 0 0 0 0 0 3 3 3 0
3 3 13 29 26 16 16 10 10 10 10 13 13 13 13 10 10 6 3 3 3 3 3 0 0 3 0 0 3 3 0 0 0 0 0 0 0 0 0 0 3 0 3
3 3 16 26 23 19 16 13 13 13 13 10 10 13 13 13 10 10 6 6 6 3 3 0 3 3 0 0 0 0 0 0 0 0 0 0 0 0 0 0 3 3 3
0 0 10 19 19 19 10 6 10 10 10 10 10 6 13 13 13 13 6 6 6 0 0 0 0 0 0 0 0 0 0 0 0 0 0 0 0 0 0 3 3 3 3
0 0 13 19 19 16 13 10 10 10 6 6 10 10 6 10 10 6 6 6 6 3 0 0 0 3 0 0 0 0 0 0 0 0 0 0 0 0 0 3 3 3 3
0 0 3 10 13 13 10 6 6 10 6 6 6 6 10 10 13 6 6 3 6 3 0 0 0 0 3 0 0 0 0 0 0 0 0 0 0 0 0 0 3 3 3
0 0 3 10 10 10 10 6 6 6 3 6 6 6 6 6 10 10 6 6 3 3 0 0 0 0 0 0 0 0 0 0 0 0 0 0 0 0 0 0 0 3 3
0 0 3 6 10 6 3 6 6 3 3 3 3 0 0 0 0 0 3 3 0 0 0 0 0 0 0 0 0 0 0 0 0 0 0 0 0 0 0 0 0 0 3
3 0 0 6 6 6 3 0 0 0 0 0 0 0 0 0 0 0 0 0 0 0 0 0 0 0 0 0 0 0 0 0 0 0 0 0 0 0 0 0 0 0 0
0 0 0 0 0 3 3 0 0 0 0 0 0 0 0 0 0 0 0 0 0 0 0 0 0 0 0 0 0 0 0 0 0 0 0 0 0 0 0 0 0 0 0
0 0 0 0 0 0 0 0 0 0 0 0 0 0 0 0 0 0 0 0 0 0 0 0 0 0 0 0 0 0 0 0 0 0 0 0 0 0 0 0 0 0 0
0 0 0 0 0 0 0 0 0 0 0 0 0 0 0 0 0 0 0 0 0 0 0 0 0 0 0 0 0 0 0 0 0 0 0 0 0 0 0 0 0 0 0
0 0 0 0 0 0 0 0 0 0 0 0 0 0 0 0 0 0 0 0 0 0 0 0 0 0 0 0 0 0 0 0 0 0 0 0 0 0 0 0 0 0 0
0 0 0 0 0 0 0 0 0 0 0 0 0 0 0 0 0 0 0 0 0 0 0 0 0 0 0 0 0 0 0 0 0 0 0 0 0 0 0 0 0 0 0
0 0 0 0 0 0 0 0 0 0 0 0 0 0 0 0 0 0 0 0 0 0 0 0 0 0 0 0 0 0 0 0 0 0 0 0 0 0 0 0 0 0 0
0 0 0 0 0 0 0 0 0 0 0 0 0 0 0 0 0 0 0 0 0 0 0 0 0 0 0 0 0 0 0 0 0 0 0 0 0 0 0 0 0 0 0
0 0 0 0 0 0 0 0 0 0 0 0 0 0 0 0 0 0 0 0 0 0 0 0 0 0 0 0 0 0 0 0 0 0 0 0 0 0 0 0 0 0 0
0 0 0 0 0 0 0 0 0 0 0 0 0 0 0 0 0 0 0 0 0 0 0 0 0 0 0 0 0 0 0 0 0 0 0 0 0 0 0 0 0 0 0
0 0 0 0 0 0 0 0 0 0 0 0 0 0 0 0 0 0 0 0 0 0 0 0 0 0 0 0 0 0 0 0 0 0 0 0 0 0 0 0 0 0 0
0 0 0 0 0 0 0 0 0 0 0 0 0 0 0 0 0 0 0 0 0 0 0 0 0 0 0 0 0 0 0 0 0 0 0 0 0 0 0 0 0 0 0
0 0 0 0 0 0 0 0 0 0 0 0 0 0 0 0 0 0 0 0 0 0 0 0 0 0 0 0 0 0 0 0 0 0 0 0 0 0 0 0 0 0 0
0 0 0 0 0 0 0 0 0 0 0 0 0 0 0 0 0 0 0 0 0 0 0 0 0 0 0 0 0 0 0 0 0 0 0 0 0 0 0 0 0 0 0
0 0 0 0 0 0 0 0 0 0 0 0 0 0 0 0 0 0 0 0 0 0 0 0 0 0 0 0 0 0 0 0 0 0 0 0 0 0 0 0 0 0 0
Height
5830 5831 5832 5832 5833 5834 5834 5835 5836 5837 5837 5838 5839 5840 5840 5841 5842 5842 5843 5843 5844 5844 5845 5845 5846 5846 5847 5847 5847 5848 5848 5848 5848 5849 5849 5849 5849 5849 5849 5849 5849 5849 5849
5827 5828 5828 5829 5830 5831 5831 5832 5833 5834 5835 5835 5836 5837 5838 5838 5839 5840 5840 5841 5841 5842 5842 5843 5843 5844 5844 5844 5845 5845 5845 5846 5846 5846 5846 5846 5846 5846 5846 5846 5846 5847 5847
5823 5824 5825 5826 5827 5827 5828 5829 5830 5831 5832 5832 5833 5834 5835 5835 5836 5837 5837 5838 5838 5839 5839 5840 5840 5841 5841 5841 5842 5842 5842 5842 5843 5843 5843 5843 5843 5843 5843 5843 5843 5843 5843
5820 5821 5822 5822 5823 5824 5825 5826 5826 5827 5828 5829 5830 5831 5831 5832 5833 5834 5834 5835 5835 5836 5836 5837 5837 5837 5838 5838 5838 5838 5839 5839 5839 5839 5839 5839 5839 5840 5840 5840 5840 5840 5840
5815 5816 5817 5818 5819 5820 5821 5822 5823 5823 5824 5825 5826 5827 5828 5829 5829 5830 5831 5831 5832 5832 5833 5833 5833 5834 5834 5834 5834 5834 5835 5835 5835 5835 5835 5835 5835 5836 5836 5836 5836 5836 5836
5810 5812 5813 5814 5815 5816 5817 5817 5818 5819 5820 5821 5822 5823 5823 5824 5825 5826 5827 5827 5828 5828 5829 5829 5829 5830 5830 5830 5830 5830 5831 5831 5831 5831 5831 5831 5831 5831 5831 5832 5832 5832 5832
5805 5807 5808 5809 5810 5811 5812 5813 5814 5814 5815 5816 5817 5818 5819 5820 5821 5822 5823 5823 5824 5824 5824 5825 5825 5825 5826 5826 5826 5826 5826 5826 5826 5826 5826 5826 5826 5826 5827 5827 5827 5827 5827
5800 5801 5802 5803 5804 5805 5807 5807 5808 5809 5810 5811 5812 5813 5814 5815 5816 5817 5818 5818 5819 5819 5820 5820 5820 5820 5821 5821 5821 5820 5821 5821 5821 5821 5821 5821 5821 5821 5821 5821 5822 5822 5822
5794 5795 5796 5798 5799 5800 5801 5802 5803 5804 5805 5805 5807 5808 5809 5810 5811 5811 5812 5813 5814 5814 5814 5815 5815 5815 5815 5815 5815 5815 5815 5815 5815 5816 5815 5815 5815 5815 5816 5816 5816 5816 5816
5787 5789 5790 5791 5792 5793 5795 5796 5797 5798 5799 5800 5801 5802 5803 5804 5805 5805 5806 5807 5807 5808 5808 5809 5809 5809 5809 5809 5809 5809 5809 5809 5809 5809 5809 5809 5809 5809 5809 5809 5809 5810 5810
5781 5782 5783 5784 5786 5787 5788 5789 5790 5791 5792 5793 5794 5795 5796 5797 5798 5799 5799 5800 5801 5801 5802 5802 5802 5802 5803 5803 5803 5803 5802 5802 5803 5803 5803 5803 5803 5803 5803 5803 5803 5803 5803
5773 5774 5775 5777 5778 5779 5780 5782 5783 5784 5785 5786 5787 5788 5789 5790 5791 5792 5792 5793 5794 5794 5794 5795 5795 5795 5796 5796 5796 5796 5796 5796 5796 5796 5796 5796 5796 5796 5796 5795 5795 5795 5795
5765 5767 5768 5769 5770 5771 5772 5774 5775 5776 5777 5778 5779 5780 5781 5782 5783 5784 5785 5785 5786 5786 5787 5787 5788 5788 5788 5788 5789 5788 5788 5788 5788 5788 5788 5788 5788 5788 5788 5788 5788 5787 5787
5757 5758 5759 5760 5761 5763 5764 5765 5767 5768 5769 5770 5771 5772 5773 5774 5775 5776 5777 5777 5778 5778 5779 5779 5779 5780 5780 5780 5781 5781 5781 5781 5780 5780 5780 5780 5780 5780 5779 5779 5779 5778 5778
5749 5750 5751 5752 5753 5754 5755 5757 5758 5759 5760 5762 5763 5764 5765 5766 5766 5767 5768 5768 5769 5770 5770 5770 5771 5771 5771 5771 5772 5772 5772 5772 5771 5771 5771 5771 5771 5770 5770 5769 5769 5769 5769
5740 5741 5742 5743 5744 5745 5747 5748 5749 5750 5751 5752 5754 5755 5755 5756 5757 5758 5759 5759 5760 5760 5761 5761 5761 5762 5762 5762 5762 5762 5762 5762 5762 5762 5761 5761 5760 5760 5759 5759 5759 5759 5759
5731 5732 5733 5734 5735 5736 5738 5739 5740 5741 5742 5743 5744 5745 5746 5747 5748 5748 5749 5750 5750 5750 5751 5751 5751 5751 5752 5752 5752 5752 5752 5752 5752 5751 5751 5750 5750 5749 5749 5749 5749 5749 5749
5722 5723 5724 5725 5727 5728 5728 5730 5731 5732 5733 5734 5735 5736 5737 5737 5738 5739 5739 5739 5740 5740 5740 5741 5741 5741 5741 5741 5741 5741 5741 5741 5741 5740 5739 5739 5739 5739 5738 5738 5738 5738 5738
5712 5713 5715 5716 5717 5718 5719 5720 5721 5722 5723 5724 5725 5726 5727 5727 5728 5728 5729 5729 5729 5729 5729 5730 5730 5730 5730 5730 5730 5730 5730 5730 5729 5729 5728 5727 5727 5727 5727 5727 5727 5728 5728
5703 5704 5705 5706 5707 5708 5709 5711 5712 5713 5714 5715 5715 5716 5717 5717 5717 5718 5718 5718 5718 5718 5718 5718 5719 5718 5718 5718 5719 5719 5719 5719 5718 5717 5717 5717 5716 5716 5716 5716 5716 5717 5717
5693 5695 5696 5697 5698 5699 5700 5701 5702 5703 5704 5705 5705 5706 5706 5706 5707 5707 5707 5707 5707 5707 5707 5707 5707 5707 5707 5707 5708 5708 5708 5707 5707 5706 5706 5706 5706 5705 5705 5705 5706 5706 5706
5684 5685 5686 5687 5688 5689 5690 5691 5692 5693 5694 5695 5695 5695 5696 5696 5696 5696 5696 5696 5696 5696 5696 5696 5696 5696 5696 5695 5696 5696 5697 5697 5696 5695 5695 5695 5695 5694 5694 5695 5695 5695 5695
5674 5675 5676 5677 5678 5679 5679 5680 5682 5683 5684 5684 5685 5685 5685 5685 5685 5685 5685 5685 5685 5685 5685 5685 5684 5684 5684 5684 5683 5683 5684 5684 5685 5685 5684 5684 5683 5683 5684 5684 5684 5685 5685
5665 5665 5665 5666 5667 5668 5669 5670 5671 5672 5673 5674 5674 5674 5674 5674 5674 5675 5675 5674 5674 5674 5674 5673 5672 5672 5672 5672 5671 5671 5671 5671 5672 5674 5674 5672 5672 5672 5672 5673 5673 5673 5673
5655 5655 5655 5656 5657 5658 5658 5659 5660 5661 5662 5662 5663 5663 5663 5663 5664 5664 5664 5663 5663 5662 5662 5661 5660 5660 5660 5660 5659 5659 5659 5659 5659 5660 5662 5662 5661 5661 5661 5662 5662 5661 5661
5646 5646 5646 5646 5647 5648 5649 5649 5650 5651 5651 5651 5652 5653 5653 5653 5653 5653 5653 5652 5652 5651 5650 5649 5648 5648 5647 5647 5647 5647 5648 5648 5648 5648 5649 5650 5650 5650 5650 5650 5650 5649 5649
Wind_Speed
18 17 17 17 16 16 15 15 14 14 13 12 12 12 12 12 12 12 12 11 11 11 11 11 11 12 12 12 12 12 12 12 12 12 12 13 13 13 13 13 13 13 14
19 19 19 18 18 17 17 17 16 15 15 14 14 13 13 13 13 13 12 12 12 12 12 13 13 13 14 14 14 14 14 14 14 14 14 14 15 15 15 15 15 15 15
21 20 20 20 19 19 19 19 18 17 17 16 16 15 15 15 14 14 13 13 13 13 13 14 14 15 15 15 16 16 16 17 17 17 17 17 17 17 16 16 16 16 16
22 22 22 22 21 21 21 20 20 20 19 18 18 18 17 16 16 15 15 15 15 15 15 15 16 16 17 17 17 18 18 18 19 19 19 19 19 19 19 18 18 18 18
24 23 23 23 23 22 22 22 22 21 21 20 20 20 19 18 18 18 18 17 17 17 17 17 18 18 18 19 19 19 19 20 20 20 20 21 21 21 21 21 20 20 20
25 25 24 24 24 24 23 23 23 23 23 22 22 21 21 20 20 20 20 20 19 19 19 19 19 19 20 20 21 21 21 21 22 22 22 22 22 23 23 23 23 23 22
27 26 26 26 25 25 25 24 24 24 24 23 23 23 23 23 23 23 22 22 22 22 22 22 22 21 21 22 22 23 23 23 24 24 24 24 24 24 25 25 25 25 25
28 28 27 27 27 26 26 26 25 25 25 25 25 25 25 25 25 25 25 25 24 24 24 24 24 24 24 24 25 25 25 25 25 26 26 26 26 26 26 26 26 27 26
30 29 29 28 28 28 27 27 27 27 27 27 27 27 27 27 27 27 27 27 26 27 27 27 27 27 26 27 27 27 27 27 27 27 27 27 27 27 27 27 28 28 28
32 31 31 31 30 30 30 30 29 29 29 29 29 29 29 29 29 29 29 29 29 29 29 29 29 29 29 29 29 29 29 29 29 29 28 28 28 28 28 28 28 29 29
33 33 33 32 32 32 32 32 31 31 31 31 31 31 31 31 31 31 31 31 31 31 31 31 31 31 31 31 30 30 31 31 30 30 30 29 29 29 29 30 30 30 30
35 35 35 34 34 34 34 34 33 33 33 33 33 33 33 33 33 33 33 33 33 33 33 33 33 33 33 33 33 33 33 32 32 32 32 32 32 31 31 31 31 32 32
36 36 36 36 36 36 36 36 36 36 35 35 35 35 35 35 35 36 35 35 35 35 35 35 35 35 35 35 35 35 35 35 35 34 34 34 34 34 34 34 34 34 35
37 38 38 38 37 37 37 38 38 37 37 37 37 37 37 37 37 37 37 37 37 37 37 37 37 37 37 37 37 37 37 37 37 37 36 36 37 36 36 36 36 37 37
37 38 39 39 39 38 38 38 39 39 39 39 39 39 38 39 39 38 38 39 39 39 39 39 38 38 38 38 38 39 39 39 39 39 40 39 39 39 39 39 38 38 38
37 38 38 39 39 39 39 40 40 40 40 40 39 39 39 39 40 40 40 40 40 40 40 40 41 41 41 41 41 41 41 41 42 42 42 42 41 40 40 40 40 39 39
38 38 38 38 38 39 39 39 40 41 41 41 40 40 40 41 41 41 41 42 42 42 42 42 43 43 43 43 43 43 43 43 44 44 44 44 42 42 41 41 41 40 40
38 39 39 38 39 39 39 39 40 40 40 40 41 41 42 42 42 42 42 43 43 44 44 44 44 44 44 44 44 44 44 44 45 45 45 45 43 43 42 42 41 41 41
39 39 39 39 39 39 40 40 40 40 40 40 41 42 42 43 43 43 43 43 44 44 44 45 45 45 44 44 44 44 44 44 44 44 44 44 44 43 43 42 42 42 42
40 40 40 40 39 39 40 40 41 41 41 41 42 43 43 43 43 43 43 43 44 44 44 44 45 44 44 44 44 44 44 44 44 44 44 44 44 44 43 43 42 42 42
41 41 41 40 40 40 40 40 41 42 42 43 43 43 44 44 43 43 42 43 43 44 44 44 44 45 45 45 45 44 44 44 44 44 44 44 43 43 43 42 42 42 41
40 41 41 41 41 41 41 41 42 42 42 43 43 43 43 44 44 43 43 43 43 44 44 44 45 45 45 46 46 45 45 45 45 45 44 44 43 43 42 43 43 42 42
39 39 40 41 41 41 41 41 42 42 42 42 42 43 43 43 44 43 43 44 44 44 44 44 45 45 45 45 45 46 45 44 44 44 45 45 44 43 43 43 43 43 43
38 39 39 40 41 41 42 41 42 42 42 42 42 42 43 43 44 43 43 44 44 44 44 44 44 44 44 44 45 45 45 45 44 43 43 44 44 43 43 43 43 44 43
36 37 38 39 39 40 41 40 40 40 40 40 41 41 42 42 42 42 43 42 43 43 44 44 45 45 45 45 45 45 44 44 44 44 42 42 42 43 43 44 44 44 43
36 36 37 38 38 39 39 39 39 39 39 39 40 40 41 41 41 41 42 43 43 44 44 44 45 45 44 44 43 43 44 43 43 43 42 41 41 42 43 44 44 43 43
Wind_Direction
253 254 254 253 253 254 255 255 255 255 256 257 258 259 259 260 262 263 266 267 267 269 270 271 274 273 272 272 274 274 274 275 276 276 276 278 279 279 279 278 277 276 276
253 254 254 254 254 255 255 256 256 256 256 256 258 260 261 262 263 264 266 266 267 269 271 272 273 274 274 273 273 273 273 273 274 275 275 276 278 279 279 278 277 277 277
252 253 254 255 254 255 256 257 258 258 258 257 259 260 262 262 261 262 265 267 269 270 271 272 274 275 277 275 274 274 274 275 275 275 275 276 276 277 278 277 277 276 277
252 253 254 255 256 256 257 258 258 259 259 259 259 260 261 261 260 262 264 267 269 272 273 274 276 277 278 278 276 275 275 276 276 277 277 277 276 276 276 276 276 277 277
252 252 254 255 256 256 257 258 258 259 259 259 259 259 260 261 260 262 264 267 269 272 274 276 277 277 278 279 278 277 276 276 276 276 277 278 278 276 275 275 275 276 277
253 253 253 255 255 256 256 257 258 258 259 259 259 259 260 261 261 262 264 267 269 272 273 275 277 277 277 278 278 277 276 276 276 276 276 276 276 277 276 275 275 275 276
253 254 254 254 255 255 256 257 257 258 258 258 258 258 258 260 261 263 264 266 268 270 272 274 275 275 276 277 277 277 276 275 275 275 276 275 275 276 276 276 275 275 276
254 254 254 255 256 255 255 256 257 258 258 258 258 258 259 260 261 263 265 266 267 269 271 272 273 274 275 276 277 277 277 275 274 275 274 274 274 274 275 275 275 275 275
255 256 256 256 256 255 255 256 256 258 258 258 259 259 259 261 262 263 265 266 268 269 270 271 272 273 274 275 276 276 277 276 275 273 273 274 274 274 273 274 274 274 274
256 257 258 257 256 256 256 256 256 257 258 258 259 260 260 261 263 264 265 266 268 269 270 271 272 272 273 275 276 276 275 275 276 274 273 273 273 273 273 273 274 274 275
257 257 258 259 257 257 257 257 257 257 258 259 259 260 261 262 263 264 265 266 267 268 270 271 272 272 273 273 274 275 275 276 275 275 273 272 273 273 273 273 273 274 274
257 258 258 259 258 258 258 258 257 257 258 259 260 261 262 263 264 265 266 266 267 268 269 270 271 271 271 272 273 274 274 275 275 275 273 272 273 273 274 274 273 274 274
257 257 258 259 259 259 258 258 257 257 258 260 261 262 263 264 265 265 266 267 268 269 269 270 270 270 270 271 272 273 274 275 274 274 274 273 272 273 274 274 274 274 274
257 257 258 258 259 259 259 259 258 258 259 260 261 263 264 265 266 266 266 266 267 268 269 270 270 270 270 270 271 272 273 274 274 274 274 274 273 273 274 274 274 274 274
257 256 257 258 258 259 259 258 259 259 259 261 262 263 263 265 265 265 265 266 267 268 268 269 269 269 270 270 271 271 272 273 274 275 275 275 275 275 274 274 274 274 274
257 256 257 258 258 259 259 259 259 260 260 261 262 263 263 264 264 264 265 266 266 267 267 268 268 269 270 271 271 271 271 272 273 274 275 276 276 275 274 274 274 275 274
257 257 258 258 259 260 260 260 260 260 260 261 262 262 263 264 265 265 265 266 266 266 267 268 269 269 270 271 271 271 271 272 273 273 274 275 275 275 274 274 274 274 274
258 258 258 259 259 260 261 261 261 260 260 261 262 262 263 264 265 265 265 266 266 267 268 268 269 270 270 271 271 271 271 272 272 273 273 273 274 274 274 273 273 273 273
258 259 259 259 260 260 261 261 261 261 262 262 263 263 263 264 265 265 265 266 267 268 269 269 269 270 271 271 271 271 271 272 272 273 273 273 274 274 274 274 273 272 272
259 259 260 260 260 260 261 261 261 261 263 264 264 264 264 265 265 266 267 267 267 268 268 269 270 270 270 271 270 271 272 272 273 273 272 273 273 273 273 273 273 272 272
260 260 260 260 260 261 261 261 261 262 263 264 265 265 265 266 266 267 267 267 268 268 269 269 270 270 270 270 270 271 272 272 272 272 272 272 273 273 273 273 273 273 272
260 259 259 260 261 262 262 262 262 263 264 265 265 266 266 266 267 267 268 268 268 268 269 269 270 270 270 271 271 271 271 271 272 271 271 271 271 271 271 272 272 273 272
262 261 260 260 262 262 263 263 263 263 264 265 265 266 266 266 267 268 268 268 268 268 268 269 270 271 270 271 271 272 272 272 271 271 271 270 270 270 270 271 272 272 274
263 263 262 261 262 262 263 264 263 263 264 264 265 266 267 266 266 267 268 269 269 269 269 269 270 270 269 269 271 272 272 272 272 270 270 269 269 270 271 271 272 273 274
264 264 264 263 263 263 264 264 264 264 265 265 265 266 266 267 267 267 267 268 269 269 270 270 270 270 270 270 270 270 271 271 272 271 269 269 270 269 269 271 272 273 274
266 266 265 264 264 264 265 265 265 265 265 265 265 265 266 266 267 267 268 268 269 270 272 272 272 270 269 269 270 270 270 271 271 270 269 269 270 270 270 272 273 273 274